TRANSIT 10 DEB, 24705

Orbit data source: Space-Track

TRANSIT 10 DEB, 24705 is space debris in LEO originally from a launch on Wed, 22 Dec 1965 UTC launched from the Air Force Western Test Range (AFWTR). Debris objects in space refer to the collection of defunct objects orbiting the Earth. Examples of debris include non-operational satellites, rocket bodies, and fragments generated from explosions, collisions, or faulty payload assembly.

Loading next visibility...
Identifier
24705, 1965-109E
Orbit
LEO
Country
Flag of USUS
Related business
Manufacturer
Unknown
Mission
Spacecraft
Bus & Motor
Unknown
Mass
Unknown
Launch date (UTC)
1965-12-22 (60 years ago)
Launch vehicle
Unknown
Launch site
Air Force Western Test Range (AFWTR)
Object type
Payload
Rocket body
Debris
Shape & HBR
Unknown
Radar Cross Section
Medium (>0.1 m² and <1 m²)

Expand to show TLE details & history
Last TLE update: 7 hours ago

TLE from 7 hours ago
0 TRANSIT 10 DEB
1 24705U 65109E   25260.92441738  .00002487  00000-0  13399-2 0  9990
2 24705  89.0604 226.8356 0077129 220.8900 193.6677 14.10995035462420
Epoch: 2025-09-17T22:11Z
TLE epoch observation values (Epoch: 2025-09-17T22:11:09.661Z)
Latitude
54.43614°
Longitude
-101.74051°
Altitude
919.298 km
Speed
7.37 km/s
True Right ascension
15h 12m 34s
True Declination
54° 16' 37"
Sunlit
Object was in daylight at epoch
Visualization orbit readout
Latitude
Unknown
Longitude
Unknown
Altitude
Unknown
Speed
Unknown
Apparent Right ascension
Unknown
Apparent Declination
Unknown
Sunlit
N/A
Visualization observer readout
Local Sidereal Time
21:59:23
Azimuth
Unknown
Elevation
Unknown
Doppler factor
Unknown
Orbital elements
Apogee altitude
908.705 km
Perigee altitude
797.16 km
Semi-major axis
7,231.069 km
Eccentricity
0.00771
Inclination
89.0604°
RAAN
226.8356°
Arg. of periapsis
220.89°
True anomaly
193.4608°
Mean anomaly
193.6677°
Eccentric anomaly
193.56406°
Mean motion
3.52971 °/min
Orbital period
101.99 mins
BSTAR
0.0013399
Loading maneuver chart data...
Computing Atmospheric mass density...
Loading historical data...
Loading historical data...
Loading historical data...
Loading historical data...
Loading historical data...
Loading historical data...
Loading historical data...

Documentation

Showing up to 5 results
|